Retour au catalogue

FENGYUN 1C DEB

ActifSSO
NORAD 30259·DEBRIS·🇨🇳 China

Lancé May 10, 1999 depuis Taiyuan Satellite Launch Center

Loading…

Prochains Passages (prochaines 24 heures)

TLE

FraisSource: Space-Track

Époque: Sep 14, 2026, 01:51 UTC

1 30259U 99025XU  26257.07731568  .00000822  00000-0  14842-3 0  9997
2 30259  98.7279 125.5143 0240674 152.3233   6.7796 14.52396742 34696

Suivez FENGYUN 1C DEB en temps réel avec AllMySat

Download on the App Store